Presure
152 126 187 169 138 183 137 149 158 195 169 162 160 158 172 146 200 209 194 212 213 211 188 213 109 111 175 154 155 158 162 165 164 167 169 167 166 166 162 166 167 176 225 206 213 214 209 148 151
190 96 170 167 182 166 194 183 173 164 168 146 171 181 164 164 167 182 175 174 152 208 209 220 221 209 147 186 138 138 142 144 147 181 145 183 144 142 143 172 172 151 179 181 139 158 224 206 231
178 183 171 172 166 181 182 184 205 185 185 141 214 200 190 149 165 159 148 179 183 166 178 149 209 211 209 199 201 201 204 212 214 212 211 207 208 186 205 204 202 193 217 210 222 221 221 150 227
181 180 171 177 166 171 168 182 192 197 183 165 203 135 135 214 215 173 191 133 194 192 172 186 187 184 199 208 142 208 192 197 190 182 154 202 205 204 204 210 200 206 214 210 202 200 176 213 205
184 180 175 175 165 175 170 164 161 180 182 190 196 203 170 190 206 135 133 164 181 179 170 161 186 181 182 177 169 165 165 192 194 183 194 162 183 177 198 204 205 200 212 160 181 201 140 150 147
171 175 181 174 175 177 171 175 161 184 178 193 193 199 191 193 193 213 142 174 198 179 196 147 173 164 160 159 174 185 177 172 190 182 191 192 196 187 180 173 193 200 199 162 136 161 207 200 129
171 177 178 175 177 168 179 183 179 180 188 202 189 173 198 136 195 189 200 204 203 203 186 189 196 161 195 196 193 167 177 170 167 167 183 189 193 143 185 135 186 191 197 119 103 204 142 131 128
162 181 186 185 182 191 192 194 196 198 193 195 176 187 196 187 199 189 188 202 204 202 193 188 187 198 194 192 163 183 188 146 168 186 188 179 169 192 182 148 185 203 201 195 223 129 129 216 194
169 167 181 187 182 181 180 188 183 207 195 199 204 175 185 194 188 189 197 198 194 199 204 191 192 187 195 199 200 195 185 175 191 187 185 188 186 185 188 194 197 197 197 200 191 170 191 214 221
180 172 193 176 182 183 188 192 202 230 188 191 200 201 168 178 181 184 196 198 183 202 203 198 170 175 181 165 194 204 175 194 181 184 187 183 186 187 187 189 143 203 208 182 180 201 212 199 214
177 179 177 181 178 189 195 213 216 191 205 205 198 181 190 177 191 177 178 184 189 190 198 201 198 193 199 186 175 192 172 196 192 186 195 195 185 181 180 190 187 191 174 180 187 197 186 149 181
192 182 165 187 175 181 193 206 193 185 178 189 191 192 188 187 190 161 180 163 166 192 185 163 191 186 184 186 183 185 141 134 148 186 183 163 194 196 197 163 203 214 171 167 187 182 187 134 185
168 181 177 186 185 170 181 183 199 196 169 174 176 181 180 182 200 199 187 181 173 160 179 188 179 174 174 175 174 124 186 193 173 130 159 153 165 182 200 203 142 169 168 178 181 162 162 205 185
178 183 179 185 172 180 170 169 177 186 187 171 178 176 167 197 195 198 196 205 156 161 168 174 185 175 183 190 187 190 145 163 153 168 187 127 206 192 200 187 192 178 184 179 188 199 206 191 194
184 176 168 183 182 175 184 185 183 172 187 188 191 196 186 183 182 194 203 202 197 179 191 160 167 184 167 172 189 191 180 180 173 129 130 148 161 126 132 146 171 142 126 161 186 207 193 183 155
173 179 177 173 189 187 176 177 175 185 189 194 192 198 205 207 208 212 216 210 216 210 221 194 192 174 163 167 175 175 181 183 183 170 180 176 163 166 186 127 137 208 187 175 179 185 128 204 167
184 178 171 159 185 182 186 187 186 187 191 194 197 214 223 220 213 217 222 218 212 226 223 246 191 193 184 182 177 183 182 181 182 182 181 177 182 174 178 168 167 168 145 123 153 161 160 172 122
176 183 194 193 179 183 189 181 185 192 197 70 237 227 231 233 235 226 207 214 220 251 232 256 236 203 187 189 184 182 180 183 188 186 175 184 177 181 172 171 171 174 170 164 152 150 150 180 164
187 195 190 186 193 194 188 179 179 201 200 211 221 225 223 224 218 214 214 164 168 264 240 258 242 230 213 190 190 202 201 202 204 196 196 188 193 175 185 175 192 182 219 153 178 194 161 179 143
193 189 189 196 159 197 192 201 200 210 235 242 233 220 223 217 246 258 270 274 238 277 274 240 247 179 226 214 202 223 197 202 188 206 194 204 199 211 215 215 208 213 213 214 174 197 108 179 150
191 195 196 198 203 196 202 99 203 226 224 226 230 234 151 231 262 297 329 341 73 208 335 308 268 256 203 226 210 227 214 221 214 189 214 215 220 214 213 218 211 220 213 230 213 216 153 199 216
195 202 202 203 204 197 204 123 222 220 238 225 226 235 247 290 310 336 347 330 378 361 353 383 295 242 265 235 216 224 197 190 224 220 219 228 225 225 226 198 225 225 191 206 195 194 207 222 223
201 199 201 205 206 217 220 207 215 81 217 237 237 244 301 314 384 350 393 369 364 345 306 318 331 351 353 256 257 237 214 203 221 223 233 206 182 226 206 227 202 181 205 206 196 230 220 213 198
202 203 214 214 201 216 224 207 244 232 227 227 135 292 291 367 345 304 199 278 318 311 126 307 307 331 340 275 210 255 202 212 226 237 210 211 218 214 216 207 218 223 203 216 211 215 224 224 236
211 204 213 212 220 211 210 225 212 230 243 207 93 358 344 321 312 201 135 211 284 283 286 138 232 184 194 300 217 263 209 244 161 192 234 234 222 205 206 210 221 229 220 225 216 222 230 211 232
204 193 193 206 209 210 228 223 241 253 293 267 287 292 310 297 293 276 289 338 289 214 276 290 299 175 135 294 265 198 253 244 193 221 229 225 210 232 228 221 224 216 237 198 218 222 218 213 215
213 207 212 224 220 235 249 248 249 293 294 287 358 297 292 277 271 271 274 261 260 209 280 265 247 261 274 269 138 279 277 177 264 265 238 154 219 217 229 215 205 228 228 223 223 219 228 222 206
220 220 227 227 230 239 249 255 284 285 288 289 314 274 284 262 277 262 255 248 252 255 261 182 263 266 266 278 275 264 220 183 272 269 250 189 236 183 216 190 233 167 249 216 225 220 241 202 173
222 230 241 228 242 272 299 293 278 281 278 315 310 281 267 254 270 256 248 248 260 244 235 244 255 256 259 136 174 232 254 259 263 260 229 179 265 277 193 238 256 228 239 209 184 255 251 190 242
239 252 289 287 283 305 292 281 271 278 307 291 312 274 269 246 248 260 248 260 254 233 244 252 233 251 257 262 254 260 254 260 251 248 249 171 247 250 234 237 233 234 238 255 234 206 278 275 291
Wind_Speed
56 52 44 55 63 59 54 57 57 51 56 57 60 62 63 56 60 55 60 56 58 61 61 63 53 53 67 65 66 67 68 69 68 70 71 71 70 71 70 71 71 74 56 71 68 68 59 61 63
46 48 56 59 57 64 52 56 57 59 59 59 58 63 66 65 65 65 65 64 60 59 59 53 51 58 61 58 61 62 63 62 63 63 62 60 64 62 62 70 69 64 59 58 60 64 52 62 48
52 51 59 61 67 62 60 52 50 56 57 59 53 58 58 63 66 66 60 66 65 61 59 61 55 55 55 59 59 60 60 54 52 53 55 58 55 58 58 59 60 53 52 55 48 49 47 57 46
52 53 57 60 71 69 64 56 49 52 60 60 54 62 61 52 57 72 70 54 71 65 60 60 59 60 59 53 58 54 63 61 64 66 63 56 54 54 53 49 56 54 50 51 56 58 63 47 50
49 55 59 64 71 70 69 61 57 57 60 60 57 58 63 63 55 59 56 65 67 66 63 60 62 61 61 62 63 65 65 59 58 57 58 61 65 63 54 51 51 54 49 54 61 54 52 45 51
59 57 59 65 69 72 70 64 63 58 60 61 59 56 62 63 63 54 69 66 67 63 62 61 62 62 60 59 61 63 64 65 60 62 59 58 56 60 62 55 56 53 54 55 53 51 51 48 49
58 62 65 68 71 75 69 69 66 63 63 57 62 63 60 63 61 59 57 62 64 62 63 61 61 59 59 57 59 62 64 66 66 65 61 59 57 54 60 58 54 54 53 37 30 49 48 49 51
61 62 67 69 70 75 70 70 69 59 58 53 66 64 60 66 53 61 63 60 61 62 60 61 60 59 58 60 66 62 61 59 62 62 61 62 59 59 61 55 56 50 51 52 49 49 50 47 46
62 65 66 65 70 75 68 71 70 57 62 55 48 67 60 56 64 65 51 58 66 61 59 60 60 58 58 54 56 59 62 64 57 59 61 61 63 62 58 56 53 53 50 47 49 62 50 48 45
62 65 66 63 65 70 72 67 63 43 62 62 54 52 71 66 65 63 60 50 64 55 56 59 62 63 63 66 57 54 57 55 62 62 60 63 62 60 61 58 58 52 52 47 53 53 50 45 46
61 67 62 64 60 63 70 55 55 62 50 55 58 66 61 68 59 70 66 64 65 64 56 52 50 55 51 60 66 54 66 50 55 61 56 57 63 61 58 59 54 50 46 52 51 55 51 46 48
69 69 62 68 61 66 64 60 60 63 66 67 61 62 66 69 68 75 71 73 71 57 66 65 57 62 62 59 58 59 50 49 50 57 61 62 62 62 62 55 56 49 48 51 50 53 50 50 49
59 71 66 71 72 59 61 63 65 67 77 69 71 69 70 71 74 75 72 72 78 57 69 66 70 73 76 73 69 48 62 61 62 51 59 57 59 62 61 58 56 57 46 56 50 54 52 51 50
75 76 74 76 69 63 59 61 63 71 75 76 75 79 84 83 79 77 76 73 71 73 73 76 74 79 76 75 75 69 61 67 60 65 63 52 63 62 63 53 54 45 45 44 49 47 44 49 48
81 74 66 80 78 65 69 71 76 70 76 79 85 89 86 88 88 85 82 75 72 82 85 70 79 81 78 78 80 78 74 76 72 58 56 58 59 54 51 53 53 47 48 48 50 50 51 46 49
78 78 79 75 86 82 69 62 71 81 84 84 85 90 98 103 98 95 91 85 76 74 76 90 89 89 80 76 80 77 81 80 79 63 73 66 57 61 57 48 54 50 39 43 47 48 54 61 51
86 83 76 76 88 85 83 76 78 81 87 92 95 101 99 94 96 96 96 93 90 82 76 78 95 96 94 92 87 92 89 86 84 80 77 71 72 62 69 56 57 51 56 59 47 49 56 54 61
85 88 91 91 87 85 86 75 82 89 92 21 95 99 94 93 93 92 80 95 94 85 87 83 90 104 90 97 96 90 85 88 91 83 72 84 67 73 62 59 64 51 49 45 68 61 66 52 50
89 89 90 91 97 89 86 75 82 98 98 99 96 97 93 90 92 92 94 47 43 87 87 85 96 100 108 98 89 103 103 101 100 96 95 84 89 67 83 63 84 61 75 67 67 69 69 60 63
93 93 93 93 75 96 91 87 89 100 101 100 100 96 96 93 99 101 101 99 86 90 85 88 94 80 106 108 102 99 99 101 74 103 84 94 88 97 93 87 92 86 84 75 66 67 38 67 63
96 96 96 94 99 98 96 27 96 105 95 97 99 103 57 97 101 95 91 89 19 56 86 89 88 96 87 106 100 101 104 103 98 71 109 98 99 99 92 86 84 81 77 72 74 77 62 59 70
98 102 98 98 96 90 100 41 98 97 99 99 102 104 105 98 95 89 64 56 61 59 60 54 89 87 97 101 93 97 76 65 100 100 89 90 91 90 88 67 83 81 56 66 69 64 66 72 67
102 104 101 101 101 109 109 99 94 20 89 101 101 101 90 87 52 48 45 49 47 45 48 58 52 47 56 95 93 96 97 89 94 87 92 85 59 85 73 80 67 60 74 70 57 73 73 68 56
106 106 108 106 97 103 104 103 99 99 95 91 29 83 61 43 38 41 41 39 28 25 50 46 43 41 41 86 67 95 81 87 92 97 84 84 90 84 79 67 73 78 77 78 69 71 71 75 73
101 99 105 101 101 98 99 104 97 100 104 60 49 53 38 29 29 39 53 45 39 43 30 41 41 41 53 49 64 91 76 95 55 62 95 97 89 78 69 71 80 83 82 79 66 73 75 67 75
97 92 94 94 90 93 106 105 110 107 79 63 66 32 29 22 17 31 5 12 41 49 35 42 39 76 53 48 56 48 91 88 68 84 96 90 74 92 90 82 81 80 87 64 74 72 71 66 67
103 104 105 107 103 108 108 107 104 75 71 61 36 37 26 29 27 26 20 20 23 40 33 37 39 42 43 53 59 49 60 65 82 89 93 51 86 85 90 79 70 86 83 79 78 69 74 72 73
109 105 106 109 107 106 104 99 72 66 63 57 35 44 28 40 31 30 25 33 31 29 28 45 33 36 43 43 48 56 60 54 63 70 79 71 92 63 77 69 91 60 89 76 80 75 82 75 65
109 111 111 108 108 97 76 63 64 61 58 40 36 41 37 48 35 39 41 39 32 44 50 41 41 43 44 57 53 49 55 57 59 62 56 60 72 66 58 77 85 83 81 69 64 77 79 65 75
109 107 88 85 85 66 63 56 60 57 49 40 34 42 45 49 49 35 43 29 28 50 48 41 49 44 41 41 46 51 59 57 62 66 66 50 69 71 77 80 85 85 79 81 81 63 70 65 59
Wind_Direction
265 268 270 266 267 266 267 264 261 267 261 263 263 264 268 258 266 261 258 259 261 262 262 263 269 267 264 266 267 268 268 269 269 270 270 269 269 270 270 271 272 276 284 282 283 284 283 274 273
276 268 266 266 272 264 273 262 262 263 264 261 263 267 266 266 269 268 261 259 262 264 263 267 268 265 265 266 267 267 268 268 269 269 268 270 269 269 269 273 273 270 275 276 271 274 289 286 296
274 271 266 267 267 271 267 267 287 267 269 266 280 268 270 267 269 265 262 268 267 265 267 262 267 267 267 265 266 267 267 268 269 270 271 270 273 271 274 276 276 278 284 283 290 293 292 274 299
273 273 269 264 267 267 267 267 278 281 274 261 281 267 270 275 268 265 265 263 267 266 265 267 267 268 270 270 263 268 268 269 269 271 270 273 275 275 276 280 279 282 285 283 283 283 279 294 291
270 271 267 268 270 269 271 269 266 273 275 281 279 272 270 265 270 269 263 269 266 268 268 264 267 265 267 267 266 266 267 271 271 269 271 270 272 272 277 282 284 283 288 276 280 287 270 277 275
272 272 269 269 270 268 268 271 265 273 272 282 276 273 271 272 269 274 269 267 271 270 271 262 267 268 267 266 267 269 269 268 270 271 272 273 274 274 273 275 279 283 284 276 271 277 294 292 269
275 273 271 270 271 273 275 276 275 271 278 278 273 272 270 270 271 269 271 269 268 269 269 271 274 262 271 271 268 266 266 267 269 270 273 274 275 272 273 271 279 282 287 271 272 295 274 272 272
278 274 274 274 276 277 277 278 279 280 278 270 267 273 271 273 266 270 270 269 267 268 268 271 270 276 273 272 263 266 268 265 269 273 275 271 272 275 273 273 277 286 289 288 298 269 270 299 290
275 274 276 277 276 278 278 281 277 282 277 269 263 267 268 271 269 268 266 269 271 270 270 267 271 272 272 274 272 271 269 268 273 273 272 273 274 276 279 283 285 286 285 288 287 277 292 302 300
275 273 280 277 279 280 278 278 280 286 273 269 261 266 269 268 269 273 266 259 269 267 267 268 262 266 268 264 271 273 269 270 267 269 271 272 276 278 280 282 273 286 288 279 282 296 297 301 301
278 278 277 280 282 283 286 287 289 268 286 278 274 264 260 262 260 265 264 262 264 267 266 264 266 266 257 264 264 268 263 268 268 270 274 274 272 273 276 283 283 281 269 283 293 297 295 278 290
280 279 272 285 279 283 293 295 284 273 272 278 275 271 269 264 260 270 257 270 269 259 264 265 262 261 260 258 259 261 263 264 266 266 267 270 274 274 277 270 283 285 270 277 286 284 295 267 294
273 283 284 289 288 277 290 288 286 288 266 273 274 273 267 269 270 263 252 251 264 254 259 254 261 264 264 261 259 271 260 257 260 263 263 266 272 279 280 282 267 276 285 281 285 280 277 297 290
284 285 286 288 274 288 276 278 281 280 283 276 273 272 274 276 268 268 262 257 270 270 267 261 251 265 260 258 259 255 264 264 262 267 271 263 273 277 279 282 284 277 284 283 286 289 294 289 295
283 282 276 285 285 276 283 284 283 274 280 275 280 282 272 269 268 269 266 260 251 258 259 268 268 252 268 270 261 259 259 260 261 262 260 268 270 262 264 269 277 264 265 273 292 293 288 275 275
280 285 286 279 284 283 276 277 274 282 280 282 276 276 279 280 279 279 277 270 261 257 254 255 255 257 268 272 269 269 262 259 259 264 261 264 266 263 263 258 265 282 276 276 270 283 263 290 274
282 282 278 268 281 282 285 285 280 281 284 282 282 283 279 277 277 278 276 276 274 269 254 245 255 255 255 258 263 260 260 261 262 261 260 263 260 264 267 267 270 274 267 257 267 275 276 280 273
281 282 280 280 278 280 280 282 283 283 281 270 283 282 281 278 276 273 273 273 272 267 264 244 239 249 261 258 257 262 266 264 262 263 263 261 262 261 263 266 263 259 267 250 274 276 269 282 267
280 279 280 278 280 280 279 276 279 282 281 282 283 280 279 278 273 271 269 253 260 268 263 248 238 238 246 260 265 254 256 258 257 262 262 267 264 263 266 264 267 264 261 257 259 260 268 258 273
280 280 278 279 277 280 279 283 283 282 286 288 287 282 281 276 283 283 282 279 270 267 260 256 248 249 239 245 255 247 254 256 273 259 264 265 266 266 266 263 265 264 267 263 247 256 264 258 264
279 280 280 280 281 282 283 271 284 286 285 286 287 288 287 286 286 285 281 274 253 264 258 248 247 246 243 248 257 249 254 252 256 273 261 263 262 263 264 264 265 264 265 259 256 262 259 257 254
280 280 280 280 281 282 286 276 287 287 289 287 286 288 289 292 290 285 276 268 267 265 267 259 244 250 240 247 259 253 262 265 254 254 257 256 258 260 260 256 263 264 258 267 248 249 265 265 264
279 279 281 282 283 284 286 285 285 243 286 287 290 293 293 290 282 281 261 256 253 254 254 264 262 257 249 242 241 250 260 263 258 254 252 266 248 257 265 260 263 246 267 269 264 260 261 265 248
279 280 281 282 283 284 283 285 289 288 289 291 263 294 286 280 275 272 266 260 234 248 250 259 254 248 248 244 246 240 245 252 256 250 262 261 257 261 264 263 261 262 256 264 264 265 265 265 263
276 278 279 280 282 285 285 288 286 291 293 290 267 291 271 273 272 251 253 256 231 245 243 242 249 239 249 250 244 240 248 243 263 250 250 250 259 252 265 260 262 262 264 266 264 268 267 262 269
278 277 278 280 283 285 287 288 293 294 296 296 296 271 264 260 231 264 267 317 235 244 239 257 259 247 237 252 245 247 241 244 245 248 252 255 251 256 260 263 262 261 262 254 268 269 266 268 268
279 279 280 283 283 285 290 289 291 295 296 294 277 254 245 245 243 249 242 241 255 257 267 249 248 240 250 246 263 243 242 260 242 244 247 249 259 256 260 261 253 260 262 265 266 267 269 267 267
278 280 281 282 284 287 288 289 292 292 291 291 254 264 225 256 221 229 230 247 237 239 236 255 237 239 246 238 236 239 250 245 245 248 247 248 252 254 257 255 259 263 262 268 270 260 268 264 267
282 283 284 283 285 289 291 291 289 288 287 277 235 243 235 256 229 245 245 234 232 245 251 238 234 236 245 256 256 244 237 241 243 245 249 251 246 250 259 253 257 262 262 260 262 264 266 268 269
281 284 287 286 288 288 289 289 285 284 279 268 243 238 226 255 254 236 247 223 240 250 250 243 252 240 240 239 237 238 240 240 241 243 244 254 251 252 255 256 259 261 261 261 268 261 266 269 272